User: anonymous   Login
Location: Brahman Valley
(40.6513°N, 111.8855°W)
Time: 03:06:19
(UTC+00:00)
Language:

Transit 2A Rocket - Orbit

View from above orbital plane
View from above orbital plane
View from above satellite
View from above satellite

Ground track
Ground track

The orbit data is extracted from the following two-line orbital elements,

1    47U 60007C   21131.80703012 -.00000014  00000-0  21913-4 0  9999
2    47  66.6672 357.0019 0220851  62.0960 300.2317 14.42149957182476
Epoch (UTC): 11 May 2021 19:22:07
Eccentricity: 0.0220851
inclination: 66.6672°
perigee height: 594 km
apogee height: 909 km
right ascension of ascending node: 357.0019°
argument of perigee: 62.0960°
revolutions per day: 14.42149957
mean anomaly at epoch: 300.2317°
orbit number at epoch: 18247

The dashed part of the orbit path shows where the satellite is in the earth's shadow,  

DLR